Madrid, Spain

3:13 PM CET on December 05, 2016 (GMT +0100)
Madrid

Weather History for 08221 - May, 2013

Change the Weather History Date:

Tuesday, May 28, 2013

  Actual Average Record
Temperature  
Mean Temperature 60 °F -  
Max Temperature 68 °F - - ()
Min Temperature 53 °F - - ()
Degree Days  
Heating Degree Days 4    
Growing Degree Days 10 (Base 50)    
Moisture  
Dew Point 38 °F    
Average Humidity 43    
Maximum Humidity 67    
Minimum Humidity 14    
Precipitation  
Precipitation 0.00 in - - ()
Sea Level Pressure  
Sea Level Pressure 29.83 in    
Wind  
Wind Speed 10 mph ()    
Max Wind Speed 21 mph    
Max Gust Speed 31 mph    
Visibility 7.3 miles    
Events      
T = Trace of Precipitation, MM = Missing Value Source: Averaged Metar Reports

Daily Weather History Graph

Daily Weather History Graph

Search for Another Location

Airport or City:

Trip Planner

Search our weather history database for the weather conditions in past years. The results will help you decide how hot, cold, wet, or windy it might be!

Date:

Astronomy

May. 28, 2013 Rise Set
Actual Time 6:48 AM CEST 9:35 PM CEST
Civil Twilight 6:15 AM CEST 10:07 PM CEST
Nautical Twilight 5:35 AM CEST 10:48 PM CEST
Astronomical Twilight 4:49 AM CEST 11:34 PM CEST
Moon 12:01 AM CEST (5/28) 10:19 AM CEST (5/28)
Length of Visible Light 15h 51m
Length of Day
14h 47m
Waning Gibbous, 85% of the Moon is Illuminated
May 28
Waning Gibbous
May 31
Last Quarter
Jun 8
New
Jun 16
First Quarter
Jun 23
Full

Hourly Weather History & Observations

Time (CEST) Temp. Dew Point Humidity Pressure Visibility Wind Dir Wind Speed Gust Speed Precip Events Conditions
12:00 AM 60.8 °F 42.8 °F 52% 29.83 in 6.2 mi SW 8.1 mph - N/A   Partly Cloudy
12:30 AM 60.8 °F 42.8 °F 52% 29.83 in 6.2 mi WSW 8.1 mph - N/A   Scattered Clouds
1:00 AM 60.8 °F 41.0 °F 48% 29.83 in 6.2 mi WSW 9.2 mph - N/A   Mostly Cloudy
1:30 AM 59.0 °F 42.8 °F 55% 29.83 in 6.2 mi WSW 9.2 mph - N/A   Scattered Clouds
2:00 AM 57 °F 41 °F 44% 29.81 in 19 mi WSW 9.2 mph - -   Partly Cloudy
2:00 AM 59.0 °F 42.8 °F 55% 29.83 in 6.2 mi WSW 9.2 mph - N/A   Scattered Clouds
2:30 AM 57.2 °F 42.8 °F 59% 29.83 in 6.2 mi West 8.1 mph - N/A   Partly Cloudy
3:00 AM 57.2 °F 41.0 °F 55% 29.83 in 6.2 mi West 9.2 mph - N/A   Partly Cloudy
3:30 AM 55.4 °F 42.8 °F 63% 29.83 in 6.2 mi West 8.1 mph - N/A   Partly Cloudy
4:00 AM 55.4 °F 42.8 °F 63% 29.80 in 6.2 mi WSW 8.1 mph - N/A   Partly Cloudy
4:30 AM 57.2 °F 42.8 °F 59% 29.80 in 6.2 mi SW 3.5 mph - N/A   Partly Cloudy
5:00 AM 57.2 °F 42.8 °F 59% 29.80 in 6.2 mi SW 4.6 mph - N/A   Partly Cloudy
5:30 AM 55.4 °F 42.8 °F 63% 29.80 in 6.2 mi South 6.9 mph - N/A   Partly Cloudy
6:00 AM 55.4 °F 42.8 °F 63% 29.80 in 6.2 mi South 5.8 mph - N/A   Scattered Clouds
6:30 AM 55.4 °F 42.8 °F 63% 29.80 in 6.2 mi South 6.9 mph - N/A   Scattered Clouds
7:00 AM 53.6 °F 42.8 °F 67% 29.80 in 6.2 mi SSW 5.8 mph - N/A   Partly Cloudy
7:30 AM 55.4 °F 42.8 °F 63% 29.80 in 6.2 mi SSW 6.9 mph - N/A   Partly Cloudy
8:00 AM 53 °F 42 °F 56% 29.80 in 19 mi SSW 3.5 mph - -   Mostly Cloudy
8:00 AM 55.4 °F 42.8 °F 63% 29.80 in 6.2 mi South 2.3 mph - N/A   Scattered Clouds
8:30 AM 55.4 °F 44.6 °F 67% 29.80 in 6.2 mi SSE 5.8 mph - N/A   Scattered Clouds
9:00 AM 55.4 °F 41.0 °F 58% 29.80 in 6.2 mi West 6.9 mph 19.6 mph N/A   Scattered Clouds
9:30 AM 57.2 °F 44.6 °F 63% 29.83 in 6.2 mi West 5.8 mph - N/A   Mostly Cloudy
10:00 AM 59.0 °F 42.8 °F 55% 29.83 in 6.2 mi West 16.1 mph - N/A   Mostly Cloudy
10:30 AM 59.0 °F 42.8 °F 55% 29.83 in 6.2 mi West 13.8 mph - N/A   Mostly Cloudy
11:00 AM 60.8 °F 42.8 °F 52% 29.83 in 6.2 mi West 15.0 mph - N/A   Mostly Cloudy
11:30 AM 60.8 °F 41.0 °F 48% 29.83 in 6.2 mi West 12.7 mph - N/A   Mostly Cloudy
12:00 PM 64.4 °F 42.8 °F 45% 29.83 in 6.2 mi West 17.3 mph - N/A   Mostly Cloudy
12:30 PM 64.4 °F 42.8 °F 45% 29.83 in 6.2 mi West 16.1 mph - N/A   Mostly Cloudy
1:00 PM 64.4 °F 37.4 °F 37% 29.83 in 6.2 mi West 18.4 mph 31.1 mph N/A   Scattered Clouds
1:30 PM 66.2 °F 37.4 °F 35% 29.83 in 6.2 mi West 19.6 mph - N/A   Scattered Clouds
2:00 PM 65 °F 34 °F 21% 29.80 in 19 mi WNW 18.4 mph - -   Mostly Cloudy
2:00 PM 66.2 °F 35.6 °F 32% 29.86 in 6.2 mi WNW 18.4 mph - N/A   Scattered Clouds
2:30 PM 68.0 °F 33.8 °F 28% 29.86 in 6.2 mi West 17.3 mph - N/A   Scattered Clouds
3:00 PM 68.0 °F 35.6 °F 30% 29.83 in 6.2 mi WNW 16.1 mph - N/A   Scattered Clouds
3:30 PM 68.0 °F 33.8 °F 28% 29.83 in 6.2 mi WNW 16.1 mph 28.8 mph N/A   Partly Cloudy
4:00 PM 68.0 °F 32.0 °F 26% 29.83 in 6.2 mi West 18.4 mph 31.1 mph N/A   Partly Cloudy
4:30 PM 68.0 °F 30.2 °F 24% 29.83 in 6.2 mi NW 18.4 mph - N/A   Partly Cloudy
5:00 PM 68.0 °F 32.0 °F 26% 29.83 in 6.2 mi WNW 16.1 mph - N/A   Partly Cloudy
5:30 PM 68.0 °F 32.0 °F 26% 29.86 in 6.2 mi West 19.6 mph - N/A   Scattered Clouds
6:00 PM 68.0 °F 30.2 °F 24% 29.83 in 6.2 mi NW 20.7 mph - N/A   Scattered Clouds
6:30 PM 66.2 °F 28.4 °F 24% 29.83 in 6.2 mi NNW 19.6 mph - N/A   Scattered Clouds
7:00 PM 68.0 °F 30.2 °F 24% 29.83 in 6.2 mi NW 13.8 mph - N/A   Scattered Clouds
7:30 PM 66.2 °F 28.4 °F 24% 29.86 in 6.2 mi NNW 17.3 mph - N/A   Scattered Clouds
8:00 PM 65 °F 27 °F 14% 29.81 in 19 mi WNW 15.0 mph - -   Partly Cloudy
8:00 PM 66.2 °F 30.2 °F 26% 29.86 in 6.2 mi NW 15.0 mph - N/A   Scattered Clouds
8:30 PM 64.4 °F 30.2 °F 28% 29.86 in 6.2 mi NW 17.3 mph - N/A   Scattered Clouds
9:00 PM 62.6 °F 30.2 °F 30% 29.86 in 6.2 mi NW 13.8 mph - N/A   Scattered Clouds
9:30 PM 62.6 °F 30.2 °F 30% 29.86 in - NW 11.5 mph - N/A   Clear
10:00 PM 62.6 °F 30.2 °F 30% 29.89 in - WNW 10.4 mph - N/A   Clear
10:30 PM 60.8 °F 30.2 °F 31% 29.89 in - WNW 10.4 mph - N/A   Clear
11:00 PM 60.8 °F 32.0 °F 34% 29.92 in - WNW 10.4 mph - N/A   Clear
11:30 PM 59.0 °F 32.0 °F 36% 29.92 in - WNW 11.5 mph - N/A   Clear